TimeEST,TemperatureF,Dew PointF,Humidity,Sea Level PressureIn,VisibilityMPH,Wind Direction,Wind SpeedMPH,Gust SpeedMPH,PrecipitationIn,Events,Conditions,WindDirDegrees,DateUTC
12:51 AM,19.9,12.0,71,30.27,10.0,Variable,5.8,-,N/A,,Overcast,0,2012-12-06 05:51:00
1:51 AM,19.9,12.9,74,30.30,9.0,NW,5.8,-,N/A,,Overcast,320,2012-12-06 06:51:00
2:51 AM,19.9,14.0,78,30.32,3.0,Variable,3.5,-,0.00,Snow,Light Snow,0,2012-12-06 07:51:00
3:51 AM,19.0,12.9,77,30.33,4.0,Variable,3.5,-,0.00,Snow,Light Snow,0,2012-12-06 08:51:00
4:51 AM,19.0,12.9,77,30.35,6.0,West,4.6,-,0.00,,Haze,260,2012-12-06 09:51:00
5:51 AM,19.0,12.9,77,30.36,8.0,Calm,Calm,-,0.00,,Overcast,0,2012-12-06 10:51:00
6:51 AM,19.0,12.0,74,30.37,10.0,Calm,Calm,-,N/A,,Overcast,0,2012-12-06 11:51:00
7:51 AM,18.0,12.0,78,30.37,10.0,Calm,Calm,-,N/A,,Overcast,0,2012-12-06 12:51:00
8:51 AM,19.0,12.9,77,30.38,10.0,Calm,Calm,-,N/A,,Mostly Cloudy,0,2012-12-06 13:51:00
9:51 AM,19.9,14.0,78,30.37,10.0,SSW,4.6,-,N/A,,Scattered Clouds,210,2012-12-06 14:51:00
10:51 AM,21.9,15.1,75,30.35,10.0,Calm,Calm,-,N/A,,Clear,0,2012-12-06 15:51:00
11:51 AM,25.0,15.1,66,30.32,10.0,Calm,Calm,-,N/A,,Clear,0,2012-12-06 16:51:00
1:51 PM,30.0,17.1,59,30.26,10.0,South,3.5,-,N/A,,Clear,180,2012-12-06 18:51:00
2:51 PM,30.9,17.1,57,30.25,10.0,Variable,3.5,-,N/A,,Clear,0,2012-12-06 19:51:00
3:51 PM,30.0,19.0,64,30.23,10.0,Calm,Calm,-,N/A,,Clear,0,2012-12-06 20:51:00
4:51 PM,25.0,18.0,75,30.24,10.0,Calm,Calm,-,N/A,,Clear,0,2012-12-06 21:51:00
5:51 PM,21.9,17.1,82,30.23,10.0,Calm,Calm,-,N/A,,Clear,0,2012-12-06 22:51:00
6:51 PM,19.9,16.0,85,30.23,10.0,Calm,Calm,-,N/A,,Clear,0,2012-12-06 23:51:00
7:51 PM,18.0,15.1,88,30.23,10.0,Calm,Calm,-,N/A,,Clear,0,2012-12-07 00:51:00
8:51 PM,19.9,17.1,89,30.21,10.0,Calm,Calm,-,N/A,,Clear,0,2012-12-07 01:51:00
9:51 PM,21.0,18.0,88,30.18,10.0,Calm,Calm,-,N/A,,Clear,0,2012-12-07 02:51:00
10:51 PM,21.9,19.0,89,30.17,10.0,Calm,Calm,-,N/A,,Clear,0,2012-12-07 03:51:00
11:51 PM,23.0,19.9,88,30.13,10.0,Calm,Calm,-,N/A,,Clear,0,2012-12-07 04:51:00